Powrót do katalogu

STARLINK-5460

AktywnyŁącznośćVLEO
NORAD 55671·PAYLOAD·🇺🇸 United States

Wystrzelony Feb 17, 2023 z Vandenberg Space Force Base

Loading…

Następne Przeloty (najbliższe 24 godziny)

TLE

ŚwieżeSource: CelesTrak SupGP

Epoka: Sep 14, 2026, 20:53 UTC

1 55671C 23021AV  26257.87062500  .00038491  00000+0  32251-2 0  2578
2 55671  70.0020  47.6627 0003194 273.4331 198.4873 14.98318064    12

Śledź STARLINK-5460 w czasie rzeczywistym z AllMySat

Download on the App Store